contact:dominique.lefevre@mio.osupytheas.fr, maurice.libes@osupytheas.fr, didier.mallarino@osupytheas.fr
Project:EMSO http://www.emso-fr.org/EMSO-France
Depth: 2436.0 m
Title:EMSO Ligure Ouest : Data MII capteur AQUADOPP
Date,Latitude,Longitude,X_East,Y_North,Z_Up,Amplitude_X,Amplitude_Y,Amplitude_Z,Batterie,SoundSpeed,Heading,Pitch,Roll,Pressure,TIS,Speed,Direction
, degrees North, degrees East, m.s-1, m.s-1,m.s-1, 1, 1, 1, Volt, m.s-1, degree, degree, degree, dbar, degree_C, m.s-1, degree
2020-12-24T00:04:02,42.805,6.029,-0.003,-0.001,-0.038,100.0,114.0,99.0,13.3,1505.2,323.7,-0.7,1.8,2470.4,13.3,0.003,251.6
2020-12-24T00:07:02,42.805,6.029,0.0,0.019,-0.015,101.0,112.0,99.0,13.4,1505.3,328.1,-0.7,1.8,2470.424,13.31,0.019,0.0
2020-12-24T00:10:02,42.805,6.029,0.002,0.007,-0.024,100.0,112.0,99.0,13.3,1505.3,328.0,-0.7,1.8,2470.399,13.31,0.007,15.9
2020-12-24T00:13:03,42.805,6.029,0.027,0.009,-0.015,101.0,111.0,99.0,13.4,1505.3,327.1,-0.7,1.8,2470.422,13.32,0.028,71.6
2020-12-24T00:16:03,42.805,6.029,-0.002,0.002,0.0,101.0,113.0,99.0,13.4,1505.3,326.9,-0.7,1.8,2470.427,13.32,0.002,315.0
2020-12-24T00:19:02,42.805,6.029,-0.004,0.031,-0.012,101.0,113.0,100.0,13.4,1505.3,328.3,-0.7,1.9,2470.442,13.32,0.031,352.7
2020-12-24T00:22:02,42.805,6.029,0.023,0.01,-0.004,100.0,111.0,99.0,13.3,1505.3,325.8,-0.7,1.8,2470.404,13.32,0.025,66.5
2020-12-24T00:25:03,42.805,6.029,0.003,0.015,-0.044,101.0,111.0,99.0,13.4,1505.3,326.4,-0.7,1.8,2470.419,13.32,0.015,11.3
2020-12-24T00:28:03,42.805,6.029,0.012,0.005,-0.005,100.0,111.0,99.0,13.3,1505.3,325.4,-0.7,1.8,2470.406,13.32,0.013,67.4
2020-12-24T00:31:03,42.805,6.029,0.016,0.019,-0.001,101.0,110.0,99.0,13.3,1505.3,326.6,-0.7,1.8,2470.373,13.32,0.024,40.1
2020-12-24T00:34:03,42.805,6.029,0.053,0.022,0.007,100.0,110.0,97.0,13.3,1505.3,325.7,-0.7,1.8,2470.409,13.32,0.057,67.5
2020-12-24T00:37:02,42.805,6.029,0.014,0.0,-0.012,101.0,110.0,98.0,13.4,1505.3,325.9,-0.7,1.8,2470.412,13.32,0.014,90.0
2020-12-24T00:40:03,42.805,6.029,0.032,0.019,0.004,100.0,110.0,100.0,13.4,1505.3,326.9,-0.7,1.8,2470.379,13.32,0.037,59.3
2020-12-24T00:43:03,42.805,6.029,0.032,0.002,0.011,100.0,109.0,100.0,13.4,1505.3,323.7,-0.7,1.8,2470.382,13.32,0.032,86.4
2020-12-24T00:49:02,42.805,6.029,-0.016,-0.009,-0.053,101.0,107.0,100.0,13.4,1505.2,326.4,-0.8,1.8,2470.406,13.3,0.018,240.6
2020-12-24T00:52:02,42.805,6.029,-0.002,0.005,-0.024,100.0,109.0,101.0,13.4,1505.3,323.2,-0.7,1.8,2470.411,13.31,0.005,338.2
2020-12-24T00:55:03,42.805,6.029,0.012,-0.018,-0.006,101.0,110.0,98.0,13.4,1505.3,327.3,-0.7,1.8,2470.423,13.31,0.021,146.3
2020-12-24T00:58:02,42.805,6.029,0.006,0.008,0.001,100.0,109.0,100.0,13.3,1505.3,326.7,-0.7,1.8,2470.441,13.32,0.01,36.9
2020-12-24T01:04:02,42.805,6.029,0.028,0.004,-0.013,102.0,113.0,100.0,13.3,1505.2,326.1,-0.7,1.8,2470.464,13.3,0.028,81.9
2020-12-24T01:07:02,42.805,6.029,0.029,0.005,-0.002,100.0,112.0,99.0,13.4,1505.3,328.2,-0.7,1.9,2470.462,13.31,0.029,80.2
2020-12-24T01:10:03,42.805,6.029,0.019,-0.002,-0.007,101.0,111.0,99.0,13.4,1505.3,326.4,-0.7,1.9,2470.439,13.31,0.019,96.0
2020-12-24T01:13:03,42.805,6.029,0.022,-0.003,-0.014,102.0,110.0,99.0,13.4,1505.3,326.1,-0.7,1.8,2470.445,13.32,0.022,97.8
2020-12-24T01:16:03,42.805,6.029,0.023,0.028,0.009,101.0,111.0,99.0,13.4,1505.3,324.0,-0.7,1.8,2470.46,13.32,0.036,39.4
2020-12-24T01:19:03,42.805,6.029,0.011,0.01,-0.028,101.0,111.0,99.0,13.4,1505.3,322.8,-0.7,1.8,2470.448,13.32,0.014,47.7
2020-12-24T01:22:02,42.805,6.029,0.021,0.035,-0.018,101.0,111.0,99.0,13.4,1505.3,325.1,-0.7,1.8,2470.436,13.32,0.04,31.0
2020-12-24T01:25:03,42.805,6.029,-0.01,0.008,0.009,100.0,108.0,101.0,13.4,1505.3,324.3,-0.7,1.9,2470.412,13.32,0.012,308.7
2020-12-24T01:28:03,42.805,6.029,0.005,-0.021,-0.023,100.0,109.0,99.0,13.4,1505.3,326.3,-0.7,1.8,2470.41,13.32,0.021,166.6
2020-12-24T01:31:03,42.805,6.029,0.019,0.015,-0.003,101.0,110.0,100.0,13.4,1505.3,326.1,-0.7,1.8,2470.397,13.32,0.024,51.7
2020-12-24T01:34:03,42.805,6.029,0.0,0.01,-0.006,102.0,109.0,99.0,13.4,1505.3,326.5,-0.7,1.8,2470.399,13.32,0.01,0.0
2020-12-24T01:37:02,42.805,6.029,0.028,0.013,-0.009,100.0,110.0,99.0,13.4,1505.3,324.2,-0.7,1.9,2470.451,13.32,0.03,65.1
2020-12-24T01:40:03,42.805,6.029,0.005,0.005,-0.008,101.0,110.0,98.0,13.3,1505.3,326.0,-0.7,1.8,2470.426,13.32,0.007,45.0
2020-12-24T01:43:03,42.805,6.029,-0.008,0.0,0.016,101.0,112.0,98.0,13.4,1505.3,325.1,-0.7,1.8,2470.404,13.32,0.008,270.0
2020-12-24T01:46:03,42.805,6.029,0.017,0.005,0.012,100.0,109.0,100.0,13.4,1505.3,325.0,-0.7,1.8,2470.384,13.32,0.017,73.6
2020-12-24T01:49:03,42.805,6.029,0.011,0.004,-0.005,102.0,109.0,99.0,13.3,1505.3,325.2,-0.7,1.8,2470.399,13.32,0.011,70.0
2020-12-24T01:52:02,42.805,6.029,0.004,0.012,-0.023,101.0,112.0,99.0,13.4,1505.3,326.0,-0.7,1.8,2470.422,13.32,0.012,18.4
2020-12-24T01:58:02,42.805,6.029,0.001,0.015,-0.013,101.0,110.0,98.0,13.4,1505.2,326.8,-0.7,1.8,2470.464,13.3,0.015,3.8
2020-12-24T02:04:02,42.805,6.029,0.028,-0.013,0.006,102.0,110.0,99.0,13.4,1505.2,326.2,-0.8,1.8,2470.495,13.29,0.03,114.9
2020-12-24T02:07:02,42.805,6.029,0.023,0.03,0.037,101.0,108.0,99.0,13.4,1505.2,324.5,-0.7,1.9,2470.455,13.3,0.037,37.5
2020-12-24T02:10:03,42.805,6.029,0.02,0.007,0.0,100.0,110.0,99.0,13.4,1505.3,323.3,-0.7,1.8,2470.457,13.31,0.021,70.7
2020-12-24T02:13:03,42.805,6.029,0.022,-0.023,-0.005,101.0,109.0,99.0,13.4,1505.3,325.2,-0.7,1.9,2470.477,13.31,0.031,136.3
2020-12-24T02:16:03,42.805,6.029,0.007,-0.002,0.006,102.0,109.0,99.0,13.4,1505.3,325.2,-0.7,1.8,2470.406,13.32,0.007,105.9
2020-12-24T02:19:03,42.805,6.029,0.031,-0.001,0.001,101.0,109.0,100.0,13.4,1505.3,326.2,-0.7,1.9,2470.422,13.32,0.031,91.8
2020-12-24T02:22:02,42.805,6.029,0.021,-0.002,-0.019,100.0,111.0,99.0,13.3,1505.3,325.6,-0.7,1.8,2470.458,13.32,0.021,95.4
2020-12-24T02:25:03,42.805,6.029,-0.012,0.0,-0.021,101.0,110.0,99.0,13.4,1505.3,327.4,-0.7,1.8,2470.467,13.32,0.012,270.0
2020-12-24T02:28:03,42.805,6.029,0.01,-0.009,-0.008,100.0,109.0,99.0,13.4,1505.3,325.4,-0.7,1.8,2470.431,13.32,0.013,132.0
2020-12-24T02:31:03,42.805,6.029,0.014,0.019,-0.001,102.0,112.0,99.0,13.4,1505.3,324.5,-0.7,1.9,2470.407,13.32,0.023,36.4
2020-12-24T02:34:03,42.805,6.029,0.011,0.014,-0.011,101.0,111.0,99.0,13.4,1505.3,327.9,-0.7,1.8,2470.457,13.32,0.017,38.2
2020-12-24T02:37:02,42.805,6.029,-0.02,-0.012,-0.033,101.0,110.0,99.0,13.4,1505.3,323.1,-0.7,1.8,2470.391,13.32,0.023,239.0
2020-12-24T02:40:03,42.805,6.029,0.043,-0.021,0.02,101.0,110.0,99.0,13.3,1505.3,327.2,-0.7,1.8,2470.459,13.32,0.047,116.0
2020-12-24T02:43:03,42.805,6.029,0.021,-0.008,-0.021,101.0,110.0,98.0,13.4,1505.3,323.9,-0.7,1.8,2470.442,13.32,0.022,110.9
2020-12-24T02:46:03,42.805,6.029,0.052,0.01,0.01,100.0,109.0,99.0,13.4,1505.3,327.5,-0.7,1.8,2470.411,13.32,0.052,79.1
2020-12-24T02:49:03,42.805,6.029,0.032,0.002,-0.006,101.0,108.0,99.0,13.4,1505.3,325.3,-0.7,1.9,2470.399,13.32,0.032,86.4
2020-12-24T02:52:02,42.805,6.029,-0.002,0.013,-0.022,101.0,108.0,99.0,13.4,1505.3,323.5,-0.7,1.8,2470.418,13.32,0.013,351.3
2020-12-24T02:55:03,42.805,6.029,0.022,0.02,0.013,101.0,110.0,99.0,13.4,1505.3,324.2,-0.7,1.9,2470.438,13.32,0.029,47.7
2020-12-24T02:58:03,42.805,6.029,0.044,0.007,0.012,100.0,109.0,99.0,13.4,1505.3,324.7,-0.7,1.8,2470.409,13.32,0.044,81.0
2020-12-24T03:04:02,42.805,6.029,0.045,0.014,0.041,100.0,109.0,99.0,13.4,1505.2,324.5,-0.7,1.8,2470.484,13.3,0.047,72.7
2020-12-24T03:07:03,42.805,6.029,0.009,-0.001,-0.004,101.0,108.0,100.0,13.4,1505.3,324.6,-0.7,1.8,2470.432,13.31,0.009,96.3
2020-12-24T03:10:03,42.805,6.029,0.0,0.011,0.0,101.0,108.0,100.0,13.4,1505.3,326.1,-0.7,1.8,2470.446,13.31,0.011,0.0
2020-12-24T03:13:03,42.805,6.029,0.028,0.002,-0.015,102.0,108.0,99.0,13.3,1505.3,324.7,-0.7,1.8,2470.437,13.32,0.028,85.9
2020-12-24T03:16:03,42.805,6.029,0.031,0.023,0.01,101.0,110.0,99.0,13.3,1505.3,325.9,-0.7,1.8,2470.449,13.32,0.038,53.4
2020-12-24T03:19:03,42.805,6.029,0.005,-0.006,-0.04,101.0,110.0,98.0,13.4,1505.3,326.1,-0.7,1.8,2470.421,13.32,0.007,140.2
2020-12-24T03:22:02,42.805,6.029,0.005,0.002,-0.019,102.0,108.0,99.0,13.4,1505.3,326.7,-0.7,1.8,2470.454,13.32,0.005,68.2
2020-12-24T03:25:03,42.805,6.029,0.039,0.016,-0.011,100.0,110.0,98.0,13.3,1505.3,326.2,-0.7,1.8,2470.387,13.32,0.042,67.7
2020-12-24T03:28:03,42.805,6.029,0.018,0.01,0.022,100.0,111.0,100.0,13.4,1505.3,322.7,-0.7,1.8,2470.45,13.32,0.02,60.9
2020-12-24T03:31:03,42.805,6.029,0.025,0.007,0.008,101.0,110.0,98.0,13.3,1505.3,327.9,-0.7,1.8,2470.458,13.32,0.025,74.4
2020-12-24T03:34:03,42.805,6.029,-0.002,0.007,0.005,100.0,108.0,99.0,13.4,1505.3,328.0,-0.7,1.8,2470.403,13.32,0.007,344.1
2020-12-24T03:37:03,42.805,6.029,0.036,0.002,0.005,101.0,109.0,98.0,13.4,1505.3,323.2,-0.7,1.8,2470.422,13.32,0.036,86.8
2020-12-24T03:40:03,42.805,6.029,0.016,0.02,0.018,101.0,111.0,99.0,13.4,1505.3,326.7,-0.7,1.9,2470.424,13.32,0.025,38.7
2020-12-24T03:43:03,42.805,6.029,0.024,0.009,0.034,100.0,110.0,99.0,13.4,1505.3,326.9,-0.7,1.8,2470.443,13.32,0.025,69.4
2020-12-24T03:46:03,42.805,6.029,0.027,0.011,0.018,101.0,107.0,100.0,13.4,1505.3,325.6,-0.7,1.8,2470.384,13.32,0.029,67.8
2020-12-24T03:49:03,42.805,6.029,0.001,0.003,-0.03,100.0,108.0,99.0,13.4,1505.3,323.3,-0.7,1.8,2470.435,13.32,0.003,18.4
2020-12-24T03:52:03,42.805,6.029,-0.007,0.018,-0.031,103.0,107.0,99.0,13.3,1505.3,326.5,-0.7,1.9,2470.398,13.32,0.019,338.8
2020-12-24T03:55:03,42.805,6.029,0.036,0.004,0.045,102.0,110.0,99.0,13.4,1505.3,326.7,-0.7,1.8,2470.422,13.33,0.036,83.7
2020-12-24T03:58:03,42.805,6.029,-0.014,-0.001,0.012,101.0,111.0,98.0,13.4,1505.3,327.0,-0.7,1.8,2470.423,13.32,0.014,265.9
2020-12-24T04:04:02,42.805,6.029,0.01,-0.005,-0.016,102.0,110.0,99.0,13.3,1505.2,324.5,-0.8,1.8,2470.453,13.3,0.011,116.6
2020-12-24T04:07:02,42.805,6.029,0.03,0.008,0.0,101.0,110.0,99.0,13.3,1505.3,325.0,-0.8,1.8,2470.439,13.31,0.031,75.1
2020-12-24T04:10:03,42.805,6.029,0.001,-0.01,-0.001,102.0,107.0,98.0,13.4,1505.3,324.1,-0.7,1.8,2470.407,13.32,0.01,174.3
2020-12-24T04:13:03,42.805,6.029,0.008,0.003,-0.009,102.0,109.0,98.0,13.4,1505.3,324.9,-0.7,1.8,2470.445,13.32,0.008,69.4
2020-12-24T04:16:03,42.805,6.029,-0.003,0.013,-0.013,100.0,109.0,100.0,13.4,1505.3,324.4,-0.7,1.8,2470.458,13.32,0.013,347.0
2020-12-24T04:19:03,42.805,6.029,-0.011,0.016,-0.003,101.0,109.0,98.0,13.4,1505.3,323.8,-0.7,1.8,2470.436,13.32,0.019,325.5
2020-12-24T04:22:03,42.805,6.029,-0.001,0.023,0.02,101.0,109.0,98.0,13.3,1505.3,328.1,-0.7,1.8,2470.453,13.32,0.023,357.5
2020-12-24T04:25:03,42.805,6.029,0.014,0.009,0.009,101.0,109.0,99.0,13.4,1505.3,326.6,-0.7,1.8,2470.385,13.32,0.016,57.3
2020-12-24T04:28:03,42.805,6.029,0.038,0.02,0.007,100.0,110.0,99.0,13.4,1505.3,324.3,-0.7,1.8,2470.406,13.32,0.042,62.2
2020-12-24T04:31:03,42.805,6.029,0.028,-0.006,0.001,100.0,110.0,99.0,13.3,1505.3,325.8,-0.7,1.8,2470.422,13.32,0.028,102.1
2020-12-24T04:34:03,42.805,6.029,0.026,0.021,0.012,103.0,108.0,99.0,13.4,1505.3,325.7,-0.7,1.8,2470.405,13.32,0.033,51.1
2020-12-24T04:37:03,42.805,6.029,0.01,0.009,0.019,102.0,111.0,98.0,13.4,1505.3,324.8,-0.7,1.8,2470.404,13.32,0.013,48.0
2020-12-24T04:40:03,42.805,6.029,0.01,0.0,-0.017,100.0,109.0,100.0,13.3,1505.3,324.5,-0.7,1.8,2470.419,13.32,0.01,90.0
2020-12-24T04:43:03,42.805,6.029,0.014,-0.012,0.003,100.0,111.0,99.0,13.4,1505.3,328.4,-0.7,1.8,2470.44,13.32,0.018,130.6
2020-12-24T04:46:03,42.805,6.029,0.018,0.006,0.001,100.0,112.0,98.0,13.4,1505.3,323.7,-0.7,1.8,2470.457,13.32,0.018,71.6
2020-12-24T04:49:03,42.805,6.029,-0.009,0.004,-0.048,100.0,110.0,100.0,13.4,1505.3,324.5,-0.7,1.8,2470.383,13.32,0.009,294.0
2020-12-24T04:52:03,42.805,6.029,0.033,0.001,0.014,102.0,111.0,99.0,13.4,1505.3,328.0,-0.7,1.9,2470.412,13.32,0.033,88.3
2020-12-24T04:55:03,42.805,6.029,0.005,-0.004,0.0,101.0,109.0,98.0,13.4,1505.3,326.0,-0.7,1.8,2470.452,13.32,0.006,128.7
2020-12-24T04:58:03,42.805,6.029,0.02,-0.005,0.016,100.0,107.0,100.0,13.4,1505.3,327.2,-0.7,1.9,2470.405,13.32,0.02,104.0
2020-12-24T05:04:02,42.805,6.029,-0.025,-0.012,-0.037,101.0,109.0,98.0,13.4,1505.2,324.3,-0.7,1.9,2470.447,13.3,0.027,244.4
2020-12-24T05:07:03,42.805,6.029,-0.025,0.006,-0.024,100.0,108.0,99.0,13.3,1505.3,327.6,-0.7,1.9,2470.439,13.31,0.025,283.5
2020-12-24T05:13:02,42.805,6.029,0.002,0.0,-0.014,100.0,109.0,99.0,13.3,1505.2,324.2,-0.8,1.8,2470.47,13.3,0.002,90.0
2020-12-24T05:16:03,42.805,6.029,-0.005,0.008,-0.036,101.0,108.0,99.0,13.4,1505.3,325.0,-0.7,1.8,2470.454,13.31,0.009,328.0
2020-12-24T05:19:03,42.805,6.029,-0.015,0.009,-0.04,102.0,108.0,99.0,13.4,1505.3,324.3,-0.7,1.8,2470.448,13.31,0.017,301.0
2020-12-24T05:22:03,42.805,6.029,0.024,0.006,0.023,101.0,109.0,99.0,13.4,1505.3,327.0,-0.7,1.8,2470.452,13.32,0.024,76.0
2020-12-24T05:25:03,42.805,6.029,0.007,0.025,-0.024,100.0,108.0,100.0,13.4,1505.3,328.0,-0.7,1.8,2470.469,13.32,0.025,15.6
2020-12-24T05:28:03,42.805,6.029,0.005,0.005,0.017,100.0,111.0,98.0,13.4,1505.3,325.3,-0.7,1.8,2470.443,13.32,0.007,45.0
2020-12-24T05:31:03,42.805,6.029,0.017,0.016,0.018,101.0,109.0,99.0,13.4,1505.3,325.3,-0.7,1.9,2470.45,13.32,0.023,46.7
2020-12-24T05:34:03,42.805,6.029,0.03,0.009,0.029,101.0,109.0,97.0,13.3,1505.3,325.1,-0.7,1.8,2470.451,13.32,0.031,73.3
2020-12-24T05:37:03,42.805,6.029,0.015,-0.014,-0.019,102.0,108.0,100.0,13.4,1505.3,326.4,-0.7,1.8,2470.413,13.32,0.02,133.0
2020-12-24T05:40:03,42.805,6.029,-0.008,0.019,0.001,102.0,109.0,98.0,13.4,1505.3,325.6,-0.7,1.8,2470.397,13.32,0.02,337.2
2020-12-24T05:43:03,42.805,6.029,-0.008,-0.004,-0.008,101.0,109.0,98.0,13.3,1505.3,324.6,-0.7,1.8,2470.449,13.33,0.008,243.4
2020-12-24T05:46:03,42.805,6.029,0.01,0.003,-0.006,102.0,111.0,98.0,13.3,1505.3,325.7,-0.7,1.8,2470.391,13.33,0.01,73.3
2020-12-24T05:49:03,42.805,6.029,0.01,0.019,0.0,103.0,107.0,98.0,13.3,1505.3,326.4,-0.7,1.8,2470.355,13.32,0.021,27.8
2020-12-24T05:52:03,42.805,6.029,0.006,0.006,0.041,101.0,110.0,99.0,13.4,1505.3,324.0,-0.7,1.8,2470.453,13.33,0.008,45.0
2020-12-24T05:55:03,42.805,6.029,0.013,0.014,0.015,101.0,110.0,99.0,13.4,1505.3,322.9,-0.7,1.8,2470.416,13.33,0.019,42.9
2020-12-24T05:58:03,42.805,6.029,-0.017,0.015,-0.001,102.0,111.0,98.0,13.4,1505.3,328.6,-0.7,1.9,2470.351,13.33,0.022,311.4
2020-12-24T06:04:02,42.805,6.029,0.011,0.034,0.023,101.0,111.0,99.0,13.4,1505.2,325.5,-0.8,1.8,2470.423,13.3,0.035,17.9
2020-12-24T06:07:03,42.805,6.029,0.023,0.003,-0.003,100.0,112.0,99.0,13.4,1505.3,327.9,-0.7,1.8,2470.422,13.31,0.023,82.6
2020-12-24T06:10:03,42.805,6.029,0.014,0.017,0.005,101.0,111.0,99.0,13.4,1505.3,323.0,-0.7,1.8,2470.405,13.32,0.022,39.5
2020-12-24T06:13:03,42.805,6.029,0.025,0.006,0.023,100.0,111.0,99.0,13.3,1505.3,324.6,-0.7,1.8,2470.422,13.32,0.025,76.5
2020-12-24T06:16:03,42.805,6.029,0.001,0.007,-0.036,100.0,110.0,100.0,13.4,1505.3,326.8,-0.7,1.8,2470.426,13.32,0.007,8.1
2020-12-24T06:19:03,42.805,6.029,-0.014,0.019,-0.027,101.0,110.0,99.0,13.3,1505.3,326.8,-0.7,1.9,2470.411,13.32,0.023,323.6
2020-12-24T06:22:03,42.805,6.029,0.018,0.009,0.021,101.0,110.0,99.0,13.3,1505.3,323.2,-0.7,1.8,2470.403,13.33,0.02,63.4
2020-12-24T06:25:03,42.805,6.029,0.024,0.013,0.03,101.0,110.0,100.0,13.4,1505.3,327.5,-0.7,1.8,2470.41,13.33,0.027,61.6
2020-12-24T06:28:03,42.805,6.029,0.03,0.004,0.015,102.0,109.0,99.0,13.4,1505.3,326.3,-0.7,1.8,2470.423,13.33,0.03,82.4
2020-12-24T06:31:03,42.805,6.029,0.023,0.007,0.043,101.0,110.0,99.0,13.4,1505.3,326.5,-0.6,1.9,2470.401,13.33,0.024,73.1
2020-12-24T06:34:03,42.805,6.029,0.003,0.006,0.018,101.0,110.0,99.0,13.4,1505.3,323.4,-0.7,1.8,2470.4,13.33,0.006,26.6
2020-12-24T06:37:03,42.805,6.029,0.031,0.016,0.029,101.0,111.0,100.0,13.4,1505.3,322.5,-0.7,1.8,2470.385,13.33,0.034,62.7
2020-12-24T06:40:03,42.805,6.029,0.009,0.021,0.023,102.0,112.0,99.0,13.4,1505.3,326.7,-0.7,1.8,2470.411,13.33,0.022,23.2
2020-12-24T06:43:03,42.805,6.029,0.024,0.01,-0.001,102.0,110.0,100.0,13.3,1505.3,327.8,-0.7,1.8,2470.36,13.33,0.026,67.4
2020-12-24T06:46:03,42.805,6.029,0.005,0.015,-0.015,100.0,112.0,100.0,13.4,1505.3,324.3,-0.7,1.8,2470.409,13.33,0.015,18.4
2020-12-24T06:49:03,42.805,6.029,0.05,0.014,0.031,101.0,112.0,99.0,13.4,1505.3,325.1,-0.7,1.8,2470.409,13.33,0.051,74.4
2020-12-24T06:52:03,42.805,6.029,-0.011,0.008,0.024,101.0,111.0,99.0,13.4,1505.3,324.9,-0.7,1.8,2470.384,13.33,0.013,306.0
2020-12-24T06:55:03,42.805,6.029,-0.015,0.037,0.035,100.0,111.0,99.0,13.4,1505.3,327.8,-0.7,1.8,2470.37,13.33,0.039,337.9
2020-12-24T06:58:03,42.805,6.029,-0.001,0.001,-0.006,102.0,114.0,99.0,13.4,1505.3,327.8,-0.7,1.8,2470.435,13.33,0.001,315.0
2020-12-24T07:04:03,42.805,6.029,0.031,0.011,-0.002,101.0,112.0,99.0,13.3,1505.3,325.0,-0.7,1.8,2470.431,13.31,0.032,70.5
2020-12-24T07:07:03,42.805,6.029,0.013,0.014,0.023,101.0,113.0,99.0,13.3,1505.3,322.7,-0.7,1.8,2470.399,13.32,0.019,42.9
2020-12-24T07:10:03,42.805,6.029,0.008,-0.006,0.014,102.0,110.0,99.0,13.4,1505.3,323.5,-0.7,1.9,2470.394,13.32,0.01,126.9
2020-12-24T07:13:03,42.805,6.029,-0.012,0.031,0.018,101.0,112.0,100.0,13.3,1505.3,323.2,-0.7,1.8,2470.377,13.32,0.033,338.8
2020-12-24T07:16:03,42.805,6.029,0.007,-0.01,0.016,101.0,112.0,100.0,13.4,1505.3,326.0,-0.7,1.9,2470.399,13.33,0.012,145.0
2020-12-24T07:19:03,42.805,6.029,0.003,0.003,0.044,101.0,112.0,100.0,13.4,1505.3,323.0,-0.7,1.8,2470.401,13.33,0.004,45.0
2020-12-24T07:22:03,42.805,6.029,0.01,0.008,0.034,101.0,112.0,100.0,13.4,1505.3,327.2,-0.7,1.8,2470.392,13.33,0.012,51.3
2020-12-24T07:25:03,42.805,6.029,0.027,0.022,0.035,101.0,112.0,99.0,13.4,1505.3,327.4,-0.7,1.8,2470.425,13.33,0.034,50.8
2020-12-24T07:28:03,42.805,6.029,-0.005,0.014,0.012,102.0,112.0,100.0,13.3,1505.3,326.2,-0.7,1.8,2470.373,13.33,0.014,340.4
2020-12-24T07:31:03,42.805,6.029,0.005,0.0,0.022,102.0,111.0,99.0,13.3,1505.3,324.7,-0.7,1.8,2470.405,13.33,0.005,90.0
2020-12-24T07:34:03,42.805,6.029,0.015,0.004,-0.003,101.0,110.0,99.0,13.4,1505.3,327.9,-0.7,1.8,2470.405,13.33,0.015,75.1
2020-12-24T07:37:03,42.805,6.029,0.023,0.004,0.033,100.0,110.0,99.0,13.4,1505.3,326.3,-0.7,1.8,2470.39,13.33,0.023,80.1
2020-12-24T07:40:03,42.805,6.029,0.005,0.025,0.025,101.0,112.0,99.0,13.4,1505.3,328.5,-0.7,1.8,2470.388,13.33,0.025,11.3
2020-12-24T07:43:03,42.805,6.029,0.008,0.012,0.029,101.0,111.0,99.0,13.3,1505.3,322.8,-0.7,1.8,2470.392,13.33,0.014,33.7
2020-12-24T07:46:03,42.805,6.029,0.031,0.002,-0.013,101.0,111.0,99.0,13.4,1505.3,327.0,-0.7,1.8,2470.4,13.33,0.031,86.3
2020-12-24T07:49:03,42.805,6.029,0.01,-0.001,-0.012,101.0,110.0,99.0,13.4,1505.3,324.3,-0.7,1.8,2470.369,13.33,0.01,95.7
2020-12-24T07:52:03,42.805,6.029,0.02,0.021,0.022,100.0,110.0,99.0,13.4,1505.3,327.7,-0.7,1.8,2470.363,13.33,0.028,43.6
2020-12-24T07:55:03,42.805,6.029,0.039,0.006,0.032,101.0,111.0,100.0,13.4,1505.3,322.6,-0.7,1.9,2470.387,13.33,0.039,81.3
2020-12-24T07:58:03,42.805,6.029,0.01,-0.007,-0.031,100.0,111.0,99.0,13.4,1505.3,325.6,-0.7,1.9,2470.411,13.33,0.012,125.0
2020-12-24T08:04:03,42.805,6.029,-0.007,-0.009,-0.054,100.0,114.0,99.0,13.4,1505.3,323.9,-0.7,1.8,2470.44,13.31,0.011,217.9
2020-12-24T08:07:03,42.805,6.029,0.022,0.027,0.0,100.0,112.0,99.0,13.4,1505.3,325.4,-0.7,1.8,2470.408,13.31,0.034,39.2
2020-12-24T08:10:03,42.805,6.029,0.01,-0.003,0.023,101.0,111.0,99.0,13.4,1505.3,327.9,-0.7,1.9,2470.397,13.32,0.01,106.7
2020-12-24T08:13:03,42.805,6.029,-0.009,-0.004,0.023,101.0,111.0,98.0,13.4,1505.3,325.9,-0.7,1.8,2470.401,13.32,0.009,246.0
2020-12-24T08:16:03,42.805,6.029,-0.013,0.008,0.002,99.0,112.0,100.0,13.4,1505.3,323.8,-0.7,1.8,2470.387,13.32,0.015,301.6
2020-12-24T08:19:03,42.805,6.029,0.007,0.001,0.023,101.0,113.0,98.0,13.4,1505.3,326.8,-0.7,1.8,2470.402,13.33,0.007,81.9
2020-12-24T08:22:03,42.805,6.029,0.032,-0.011,0.032,100.0,110.0,99.0,13.3,1505.3,326.7,-0.7,1.8,2470.387,13.33,0.033,109.0
2020-12-24T08:25:03,42.805,6.029,0.022,0.008,0.044,99.0,110.0,99.0,13.4,1505.3,327.1,-0.7,1.8,2470.371,13.33,0.023,70.0
2020-12-24T08:28:03,42.805,6.029,0.006,0.016,0.036,100.0,112.0,99.0,13.4,1505.3,325.0,-0.7,1.8,2470.424,13.33,0.017,20.6
2020-12-24T08:31:03,42.805,6.029,0.025,-0.004,0.043,101.0,111.0,98.0,13.4,1505.3,327.2,-0.7,1.8,2470.388,13.33,0.025,99.1
2020-12-24T08:34:03,42.805,6.029,0.017,0.008,0.031,99.0,111.0,100.0,13.4,1505.3,326.7,-0.7,1.8,2470.406,13.33,0.018,64.8
2020-12-24T08:37:03,42.805,6.029,-0.017,0.014,0.014,101.0,112.0,98.0,13.4,1505.3,326.0,-0.7,1.8,2470.377,13.33,0.022,309.5
2020-12-24T08:40:03,42.805,6.029,0.006,0.02,0.056,101.0,112.0,99.0,13.4,1505.3,326.3,-0.7,1.8,2470.4,13.33,0.02,16.7
2020-12-24T08:43:03,42.805,6.029,-0.029,0.014,0.006,101.0,112.0,99.0,13.4,1505.3,325.3,-0.7,1.8,2470.42,13.33,0.032,295.8
2020-12-24T08:46:03,42.805,6.029,-0.033,0.013,-0.017,101.0,114.0,98.0,13.3,1505.3,324.0,-0.7,1.8,2470.38,13.33,0.035,291.5
2020-12-24T08:49:03,42.805,6.029,0.0,0.018,0.05,100.0,112.0,99.0,13.3,1505.3,327.6,-0.7,1.8,2470.382,13.33,0.018,0.0
2020-12-24T08:52:03,42.805,6.029,0.015,0.02,0.05,102.0,112.0,99.0,13.4,1505.3,328.5,-0.7,1.9,2470.381,13.33,0.025,36.9
2020-12-24T08:55:03,42.805,6.029,0.014,0.007,0.004,101.0,112.0,99.0,13.4,1505.3,326.0,-0.7,1.8,2470.389,13.33,0.015,63.4
2020-12-24T08:58:03,42.805,6.029,-0.03,0.018,-0.009,99.0,114.0,100.0,13.4,1505.3,327.2,-0.7,1.8,2470.389,13.33,0.034,301.0
2020-12-24T09:04:03,42.805,6.029,-0.003,0.023,0.002,99.0,110.0,98.0,13.4,1505.3,326.5,-0.8,1.8,2470.443,13.31,0.023,352.6
2020-12-24T09:07:03,42.805,6.029,0.012,-0.006,0.011,101.0,118.0,99.0,13.3,1505.3,327.5,-0.7,1.8,2470.397,13.32,0.013,116.6
2020-12-24T09:10:03,42.805,6.029,-0.016,0.015,0.022,98.0,114.0,100.0,13.4,1505.3,325.2,-0.7,1.8,2470.406,13.32,0.021,313.1
2020-12-24T09:13:03,42.805,6.029,-0.001,-0.002,-0.001,99.0,113.0,100.0,13.4,1505.3,323.1,-0.7,1.8,2470.398,13.32,0.002,206.6
2020-12-24T09:16:03,42.805,6.029,-0.009,0.013,0.015,100.0,112.0,100.0,13.4,1505.3,324.3,-0.7,1.8,2470.381,13.33,0.015,325.3
2020-12-24T09:19:03,42.805,6.029,0.018,0.007,0.041,101.0,112.0,99.0,13.4,1505.3,326.9,-0.7,1.8,2470.357,13.33,0.019,68.8
2020-12-24T09:22:03,42.805,6.029,-0.001,0.014,0.02,100.0,112.0,100.0,13.4,1505.3,325.4,-0.7,1.8,2470.406,13.33,0.014,355.9
2020-12-24T09:25:03,42.805,6.029,0.018,0.01,0.026,101.0,112.0,99.0,13.4,1505.3,324.7,-0.7,1.8,2470.34,13.33,0.02,60.9
2020-12-24T09:28:03,42.805,6.029,-0.001,0.023,0.015,101.0,112.0,99.0,13.4,1505.3,325.4,-0.7,1.9,2470.375,13.33,0.023,357.5
2020-12-24T09:31:03,42.805,6.029,-0.014,0.003,-0.026,99.0,116.0,101.0,13.4,1505.3,326.5,-0.7,1.8,2470.385,13.33,0.014,282.1
2020-12-24T09:34:03,42.805,6.029,0.005,0.036,0.035,99.0,119.0,99.0,13.3,1505.3,326.1,-0.7,1.8,2470.402,13.33,0.036,7.9
2020-12-24T09:37:03,42.805,6.029,0.007,0.024,-0.014,99.0,117.0,100.0,13.4,1505.3,328.4,-0.7,1.8,2470.368,13.32,0.025,16.3
2020-12-24T09:40:03,42.805,6.029,-0.012,-0.004,-0.011,100.0,116.0,98.0,13.4,1505.3,324.5,-0.7,1.8,2470.405,13.32,0.012,251.6
2020-12-24T09:43:03,42.805,6.029,0.026,0.022,-0.007,100.0,117.0,99.0,13.4,1505.3,328.2,-0.7,1.8,2470.39,13.32,0.034,49.8
2020-12-24T09:46:03,42.805,6.029,-0.012,0.014,-0.014,98.0,116.0,100.0,13.3,1505.3,326.9,-0.7,1.8,2470.424,13.32,0.018,319.4
2020-12-24T09:49:03,42.805,6.029,0.013,0.014,0.013,99.0,119.0,98.0,13.4,1505.3,327.6,-0.7,1.8,2470.39,13.32,0.019,42.9
2020-12-24T09:52:03,42.805,6.029,-0.021,0.015,0.027,100.0,117.0,99.0,13.4,1505.3,323.3,-0.7,1.8,2470.386,13.32,0.025,305.5
2020-12-24T09:55:03,42.805,6.029,0.01,0.013,0.034,99.0,114.0,98.0,13.4,1505.3,325.3,-0.7,1.8,2470.411,13.32,0.016,37.6
2020-12-24T09:58:03,42.805,6.029,-0.009,0.011,-0.015,99.0,117.0,98.0,13.4,1505.3,325.7,-0.7,1.8,2470.391,13.32,0.014,320.7
2020-12-24T10:04:03,42.805,6.029,0.003,0.017,0.012,99.0,112.0,99.0,13.3,1505.2,326.1,-0.8,1.8,2470.464,13.3,0.017,10.0
2020-12-24T10:07:03,42.805,6.029,0.0,0.006,0.017,100.0,115.0,99.0,13.3,1505.3,325.7,-0.7,1.8,2470.463,13.31,0.006,0.0
2020-12-24T10:10:03,42.805,6.029,-0.04,0.018,-0.011,99.0,115.0,98.0,13.4,1505.3,325.7,-0.7,1.8,2470.392,13.32,0.043,294.2
2020-12-24T10:13:03,42.805,6.029,-0.008,0.003,-0.001,100.0,117.0,98.0,13.4,1505.3,328.2,-0.7,1.8,2470.407,13.32,0.008,290.6
2020-12-24T10:16:03,42.805,6.029,0.0,0.022,0.048,100.0,115.0,99.0,13.4,1505.3,324.2,-0.7,1.8,2470.447,13.32,0.022,0.0
2020-12-24T10:19:03,42.805,6.029,-0.026,0.006,0.02,99.0,118.0,98.0,13.3,1505.3,325.5,-0.7,1.8,2470.403,13.32,0.026,283.0